CW3224 Weather Reports


time (UTC)temp
C
wind
direction
speed
KPH
gust
KPH
rain 1hr
cm
rain 24hr
cm
rain mn
cm
humidity
%
barometer
mb
20260507030429 14 301 1.6 9.7 0.03 0.51 0.51 93 1005.5
20260507025429 14 301 0.0 8.0 0.03 0.51 0.51 93 1005.5
20260507024429 14 301 0.0 0.0 0.03 0.51 0.51 93 1005.5
20260507023428 14 198 3.2 8.0 0.03 0.51 0.51 93 1005.5
20260507022430 14 184 1.6 4.8 0.00 0.48 0.48 93 1005.5
20260507021426 14 183 0.0 4.8 0.00 0.48 0.48 93 1005.1
20260507020903 14 197 1.6 6.4 0.00 0.48 0.48 93 1005.1
20260507015426 14 203 0.0 4.8 0.00 0.48 0.48 93 1005.4
20260507014904 14 202 1.6 6.4 0.00 0.48 0.48 93 1005.3
20260507013426 14 204 1.6 6.4 0.00 0.48 0.48 93 1005.3
20260507012428 14 195 3.2 9.7 0.00 0.48 0.48 93 1005.3
20260507011844 14 217 4.8 12.9 0.00 0.48 0.48 93 1005.4
20260507011452 14 185 4.8 11.3 0.00 0.48 0.48 93 1005.4
20260507005415 14 189 4.8 11.3 0.00 0.48 0.48 93 1005.5
20260507004416 14 156 4.8 14.5 0.00 0.48 0.48 93 1005.2
20260507003416 14 190 4.8 16.1 0.00 0.48 0.48 93 1005.2
20260507002416 14 231 3.2 11.3 0.00 0.48 0.48 93 1005.0
20260507001417 14 194 3.2 9.7 0.00 0.48 0.48 92 1005.2
20260507000414 14 200 3.2 14.5 0.03 0.48 0.48 93 1005.2
20260506235414 14 167 3.2 8.0 0.05 0.48 0.48 92 1005.0
20260506234414 14 177 3.2 11.3 0.08 0.48 0.48 92 1005.0
20260506233415 14 206 3.2 11.3 0.10 0.48 0.48 92 1005.0
20260506232415 14 202 3.2 8.0 0.13 0.48 0.48 92 1005.0
20260506231415 14 198 4.8 12.9 0.15 0.48 0.48 92 1005.0
20260506230415 14 218 4.8 11.3 0.18 0.46 0.48 92 1005.0
20260506225415 14 158 4.8 11.3 0.20 0.43 0.43 92 1005.1
20260506225346 14 202 4.8 11.3 0.20 0.41 0.41 91 1005.1
20260506223414 15 193 4.8 12.9 0.23 0.38 0.38 92 1005.1
20260506222854 15 206 6.4 20.9 0.20 0.36 0.36 91 1005.2
20260506221413 15 172 4.8 12.9 0.18 0.33 0.33 91 1005.4
20260506220414 15 183 6.4 16.1 0.13 0.28 0.28 91 1005.4
20260506215414 15 148 8.0 16.1 0.08 0.23 0.23 90 1005.5
20260506214415 15 200 6.4 16.1 0.05 0.20 0.20 90 1005.5
20260506213413 15 301 4.8 12.9 0.00 0.15 0.15 90 1005.5
20260506212414 15 301 6.4 19.3 0.03 0.15 0.15 90 1005.6
20260506211411 15 301 6.4 17.7 0.03 0.15 0.15 90 1005.7
20260506210412 15 212 6.4 14.5 0.05 0.15 0.15 89 1005.7
20260506205412 15 207 4.8 17.7 0.08 0.15 0.15 89 1006.0
20260506204413 15 201 6.4 19.3 0.08 0.15 0.15 89 1006.0
20260506203402 15 301 8.0 20.9 0.08 0.15 0.15 88 1006.0
20260506202404 16 195 6.4 16.1 0.05 0.13 0.13 88 1006.1
20260506201359 16 301 8.0 19.3 0.08 0.13 0.13 87 1006.1
20260506200401 16 301 8.0 16.1 0.05 0.10 0.10 87 1006.1
20260506195352 16 135 8.0 17.7 0.03 0.08 0.08 86 1006.0
20260506194353 16 216 6.4 14.5 0.05 0.08 0.08 86 1006.1
20260506193835 17 210 3.2 16.1 0.08 0.08 0.08 86 1006.1
20260506192829 17 251 4.8 12.9 0.08 0.08 0.08 85 1006.1
20260506191352 17 212 6.4 17.7 0.05 0.05 0.05 84 1006.1
20260506190351 17 196 4.8 17.7 0.05 0.05 0.05 83 1006.1
20260506185351 18 195 8.0 19.3 0.05 0.05 0.05 81 1006.3
20260506184352 18 200 6.4 17.7 0.03 0.03 0.03 78 1006.5
20260506183826 19 199 6.4 16.1 0.00 0.00 0.03 76 1006.5
20260506182349 20 253 4.8 19.3 0.00 0.00 0.00 72 1006.5
20260506181349 20 212 6.4 14.5 0.00 0.00 0.00 70 1006.5
20260506180831 21 225 11.3 30.6 0.00 0.00 0.00 66 1006.5
20260506175351 21 211 9.7 30.6 0.00 0.00 0.00 65 1006.5
20260506174348 21 301 11.3 30.6 0.00 0.00 0.00 63 1006.5
20260506173347 22 208 11.3 25.7 0.00 0.00 0.00 61 1006.5
20260506172345 22 301 8.0 27.4 0.00 0.00 0.00 60 1006.5
20260506171346 22 126 6.4 19.3 0.00 0.00 0.00 61 1006.5
20260506170346 22 199 8.0 17.7 0.00 0.00 0.00 62 1006.5
20260506165344 22 208 6.4 17.7 0.00 0.00 0.00 63 1006.7
20260506164344 21 301 8.0 24.1 0.00 0.00 0.00 64 1007.0
20260506163343 21 233 9.7 19.3 0.00 0.00 0.00 64 1007.0
20260506162341 21 218 9.7 24.1 0.00 0.00 0.00 64 1007.2
20260506161342 21 226 11.3 22.5 0.00 0.00 0.00 65 1007.5
20260506160341 21 232 8.0 27.4 0.00 0.00 0.00 66 1007.5
20260506155816 20 190 8.0 19.3 0.00 0.00 0.00 67 1007.7
20260506154341 20 219 8.0 24.1 0.00 0.00 0.00 68 1008.0
20260506153342 20 301 8.0 22.5 0.00 0.00 0.00 69 1008.0
20260506153316 20 301 6.4 20.9 0.00 0.00 0.00 70 1008.2
20260506151339 20 301 9.7 20.9 0.00 0.00 0.00 69 1008.4
20260506150339 20 301 8.0 20.9 0.00 0.00 0.00 70 1008.4
20260506145818 20 301 8.0 20.9 0.00 0.00 0.00 70 1008.6
20260506144339 20 148 8.0 20.9 0.00 0.00 0.00 70 1008.5
20260506143340 20 301 8.0 19.3 0.00 0.00 0.00 69 1008.5
20260506142341 20 220 8.0 20.9 0.00 0.00 0.00 71 1008.2
20260506141326 20 195 9.7 25.7 0.00 0.00 0.00 71 1008.1
20260506140325 20 230 9.7 25.7 0.00 0.00 0.00 73 1008.1
20260506135325 19 301 8.0 25.7 0.00 0.00 0.00 73 1008.2
20260506134326 19 301 8.0 22.5 0.00 0.00 0.00 74 1008.5
20260506133326 18 247 8.0 20.9 0.00 0.00 0.00 74 1008.5
20260506132327 18 218 11.3 24.1 0.00 0.00 0.00 76 1008.7
20260506131325 18 143 8.0 20.9 0.00 0.00 0.00 76 1008.9
20260506130326 17 245 8.0 20.9 0.00 0.00 0.00 76 1008.9
20260506125324 17 231 9.7 22.5 0.00 0.00 0.00 77 1008.8
20260506124323 17 183 11.3 25.7 0.00 0.00 0.00 77 1008.6
20260506123324 17 301 9.7 22.5 0.00 0.00 0.00 78 1008.6
20260506122322 16 301 8.0 17.7 0.00 0.00 0.00 79 1008.7
20260506121321 16 301 8.0 22.5 0.00 0.00 0.00 79 1008.8
20260506120321 16 219 9.7 24.1 0.00 0.00 0.00 79 1008.8
20260506115322 16 301 8.0 20.9 0.00 0.00 0.00 81 1009.2
20260506114322 16 194 6.4 16.1 0.00 0.00 0.00 81 1009.2
20260506113314 15 211 6.4 17.7 0.00 0.00 0.00 81 1009.2
20260506112756 15 183 6.4 16.1 0.00 0.00 0.00 81 1009.4
20260506111315 15 198 6.4 16.1 0.00 0.00 0.00 81 1009.2
20260506110746 15 202 6.4 16.1 0.00 0.00 0.00 82 1009.2
20260506105316 15 209 6.4 20.9 0.00 0.00 0.00 83 1009.2
20260506104801 15 187 6.4 16.1 0.00 0.00 0.00 83 1009.2
20260506103315 14 198 6.4 11.3 0.00 0.00 0.00 83 1009.2
20260506102313 14 196 6.4 14.5 0.00 0.00 0.00 82 1009.1
20260506101313 15 180 4.8 12.9 0.00 0.00 0.00 81 1009.2
20260506100314 15 199 4.8 17.7 0.00 0.00 0.00 81 1009.2
20260506095310 15 191 4.8 12.9 0.00 0.00 0.00 80 1009.2
20260506094312 15 213 6.4 14.5 0.00 0.00 0.00 80 1008.8
20260506093311 15 222 6.4 16.1 0.00 0.00 0.00 80 1008.8
20260506092802 15 195 6.4 17.7 0.00 0.00 0.00 79 1009.1
20260506091754 15 198 6.4 17.7 0.00 0.00 0.00 79 1009.1
20260506090310 15 170 6.4 11.3 0.00 0.00 0.00 78 1009.1
20260506085305 15 225 8.0 17.7 0.00 0.00 0.00 78 1009.1
20260506084303 15 199 6.4 14.5 0.00 0.00 0.00 78 1009.1
20260506083742 15 208 8.0 27.4 0.00 0.00 0.00 77 1009.1
20260506082304 16 211 6.4 17.7 0.00 0.00 0.00 77 1009.1
20260506081301 16 212 8.0 27.4 0.00 0.00 0.00 77 1009.0
20260506080301 16 230 6.4 14.5 0.00 0.00 0.00 76 1009.0
20260506073301 16 139 6.4 16.1 0.00 0.00 0.00 75 1009.1
20260506072305 16 204 8.0 17.7 0.00 0.00 0.00 74 1008.9
20260506071301 16 153 8.0 22.5 0.00 0.00 0.00 73 1008.7
20260506070259 16 242 6.4 19.3 0.00 0.00 0.00 73 1008.7
20260506062244 17 188 9.7 22.5 0.00 0.00 0.00 70 1008.6
20260506061245 17 219 9.7 24.1 0.00 0.00 0.00 70 1008.4
20260506060245 17 202 8.0 19.3 0.00 0.00 0.00 69 1008.4
20260506051238 17 189 9.7 24.1 0.00 0.00 0.00 68 1008.8
20260506050238 17 169 8.0 19.3 0.00 0.00 0.00 68 1008.8
20260506050151 17 201 6.4 16.1 0.00 0.00 0.00 69 1008.8
20260506044234 17 170 8.0 22.5 0.00 0.00 0.00 68 1009.0
20260506043232 17 222 6.4 19.3 0.00 0.00 0.00 68 1009.0
20260506042233 17 212 6.4 14.5 0.00 0.00 0.00 68 1009.0
20260506041233 17 197 8.0 22.5 0.00 0.00 0.00 67 1009.0
20260506040231 17 200 6.4 19.3 0.00 0.00 0.00 67 1009.0
20260506035229 17 243 8.0 20.9 0.00 0.00 0.00 66 1008.9
20260506034229 17 196 6.4 17.7 0.00 0.00 0.00 66 1009.0
20260506033713 17 207 6.4 20.9 0.00 0.00 0.00 65 1009.0
20260506032231 17 200 8.0 19.3 0.00 0.00 0.00 65 1008.9
20260506031225 17 239 8.0 16.1 0.00 0.00 0.00 64 1008.9